Jefferson City, MO

4:14 PM CDT on April 26, 2018 (GMT -0500)
Jefferson City Memorial

Weather History for KJEF - October, 2013

Change the Weather History Date:

Sunday, October 6, 2013

  Actual Average Record
Temperature  
Mean Temperature 52 °F -  
Max Temperature 57 °F 72 °F 92 °F (1939)
Min Temperature 46 °F 45 °F 26 °F (1952)
Degree Days  
Heating Degree Days 14    
Growing Degree Days 2 (Base 50)    
Moisture  
Dew Point 41 °F    
Average Humidity 65    
Maximum Humidity 86    
Minimum Humidity 49    
Precipitation  
Precipitation 0.00 in - - ()
Sea Level Pressure  
Sea Level Pressure 29.88 in    
Wind  
Wind Speed 9 mph (West)    
Max Wind Speed 20 mph    
Max Gust Speed 26 mph    
Visibility 9 miles    
Events      
Averages and records for this station are not official NWS values.
T = Trace of Precipitation, MM = Missing Value Source: NWS Daily Summary

Daily Weather History Graph

Daily Weather History Graph

Search for Another Location

Airport or City:

Astronomy

Oct. 06, 2013 Rise Set
Actual Time 7:09 AM CDT 6:43 PM CDT
Civil Twilight 6:42 AM CDT 7:09 PM CDT
Nautical Twilight 6:12 AM CDT 7:40 PM CDT
Astronomical Twilight 5:41 AM CDT 8:11 PM CDT
Moon 8:52 AM CDT (10/6) 7:44 PM CDT (10/6)
Length of Visible Light 12h 26m
Length of Day
11h 33m
Waxing Crescent, 3% of the Moon is Illuminated
Oct 6
Waxing Crescent
Oct 11
First Quarter
Oct 18
Full
Oct 26
Last Quarter
Nov 3
New

Hourly Weather History & Observations

Time (CDT) Temp. Windchill Dew Point Humidity Pressure Visibility Wind Dir Wind Speed Gust Speed Precip Events Conditions
12:53 AM 50.0 °F - 46.0 °F 86% 29.87 in 10.0 mi WSW 6.9 mph - N/A   Clear
1:53 AM 50.0 °F - 44.1 °F 80% 29.87 in 10.0 mi WSW 5.8 mph - N/A   Clear
2:53 AM 48.9 °F - 42.1 °F 77% 29.86 in 10.0 mi Calm Calm - N/A   Clear
3:53 AM 48.0 °F - 41.0 °F 77% 29.84 in 10.0 mi Calm Calm - N/A   Clear
4:53 AM 48.0 °F - 41.0 °F 77% 29.86 in 10.0 mi West 5.8 mph - N/A   Clear
5:53 AM 46.9 °F - 39.9 °F 77% 29.86 in 10.0 mi West 8.1 mph - N/A   Clear
6:53 AM 46.0 °F 41.9 °F 37.9 °F 73% 29.87 in 10.0 mi WSW 8.1 mph - N/A   Clear
7:53 AM 46.0 °F 41.0 °F 37.9 °F 73% 29.87 in 10.0 mi SW 10.4 mph - N/A   Clear
8:53 AM 48.0 °F - 37.0 °F 66% 29.86 in 10.0 mi West 12.7 mph - N/A   Partly Cloudy
9:53 AM 51.1 °F - 37.9 °F 61% 29.87 in 10.0 mi WSW 17.3 mph 23.0 mph N/A   Mostly Cloudy
10:53 AM 50.0 °F - 37.9 °F 63% 29.89 in 10.0 mi West 13.8 mph 20.7 mph N/A   Overcast
11:53 AM 52.0 °F - 37.0 °F 57% 29.88 in 10.0 mi West 15.0 mph 24.2 mph N/A   Overcast
12:53 PM 52.0 °F - 37.0 °F 57% 29.88 in 10.0 mi WSW 17.3 mph 24.2 mph N/A   Overcast
1:47 PM 53.6 °F - 39.2 °F 58% 29.90 in 0.8 mi WSW 12.7 mph - N/A   Haze
1:53 PM 54.0 °F - 39.0 °F 57% 29.87 in 0.2 mi West 15.0 mph 18.4 mph N/A   Haze
1:59 PM 53.6 °F - 37.4 °F 54% 29.89 in 1.0 mi West 18.4 mph 26.5 mph N/A   Haze
2:01 PM 53.6 °F - 37.4 °F 54% 29.89 in 10.0 mi West 19.6 mph 26.5 mph N/A   Overcast
2:53 PM 57.0 °F - 37.9 °F 49% 29.86 in 10.0 mi West 12.7 mph 20.7 mph N/A   Scattered Clouds
3:53 PM 57.0 °F - 37.9 °F 49% 29.86 in 10.0 mi West 15.0 mph - N/A   Overcast
4:53 PM 57.0 °F - 37.9 °F 49% 29.86 in 10.0 mi WSW 13.8 mph - N/A   Overcast
5:53 PM 57.0 °F - 39.0 °F 51% 29.86 in 10.0 mi SW 12.7 mph - N/A   Overcast
6:53 PM 55.9 °F - 42.1 °F 60% 29.87 in 10.0 mi SW 8.1 mph - N/A   Overcast
7:53 PM 55.0 °F - 43.0 °F 64% 29.88 in 10.0 mi SW 5.8 mph - N/A   Overcast
8:53 PM 55.0 °F - 44.1 °F 67% 29.90 in 3.0 mi NW 9.2 mph - N/A   Overcast
9:53 PM 53.1 °F - 46.0 °F 77% 29.91 in 10.0 mi WNW 9.2 mph - N/A   Overcast
10:30 PM 53.6 °F - 44.6 °F 72% 29.94 in 10.0 mi WNW 11.5 mph - N/A   Overcast
10:50 PM 53.6 °F - 44.6 °F 72% 29.95 in 10.0 mi NW 8.1 mph 19.6 mph N/A   Overcast
10:53 PM 54.0 °F - 44.1 °F 69% 29.92 in 10.0 mi WNW 12.7 mph 19.6 mph N/A   Overcast
11:07 PM 53.6 °F - 42.8 °F 67% 29.95 in 10.0 mi NW 13.8 mph 21.9 mph N/A   Overcast
11:53 PM 53.1 °F - 42.1 °F 66% 29.93 in 10.0 mi WNW 11.5 mph 24.2 mph N/A   Overcast